[[{"header":{"parameterUnit":"m.s-1","parameterCategory":1,"la1":30.2991,"la2":30.254,"lo1":-89.0895,"lo2":-89.0444,"dy":0.0017,"dx":0.0017,"nx":28,"ny":28,"refTime":"2025-05-21T21:00:00:Z","depth":0,"parameterNumber":2,"parameterNumberName":"U-component_of_WINDS"},"data":[0,0,0,0,0,0,0,0,0,0,0,0,0,0,0,0,0,0,0,0,0,0,0,0,0,0,0,0,0,0,0,0,0,0,0,0,0,0,0,0,0,0,0,0,0,0,0,0,0,0,0,0,0,0,0,0,0,0,1.51,1.51,0,1.5108,1.5108,1.5109,1.5063,1.5062,1.506,1.5059,1.5069,1.507,1.5072,0,0,0,0,0,0,0,0,0,0,0,0,0,1.5047,1.5049,1.51,1.51,1.51,1.5108,1.5109,1.5109,1.5063,1.5062,1.506,1.5058,1.5068,1.507,1.5072,0,0,0,0,0,0,0,0,0,0,0,0,0,1.5064,1.5049,1.51,1.5079,1.5077,1.5108,1.5109,1.5109,1.5063,1.5062,1.506,1.5058,1.5068,1.507,1.5072,1.5125,0,0,1.5079,1.508,0,0,0,0,0,0,0,0,1.5064,1.5066,1.5082,1.508,1.5078,1.5083,1.5093,1.5114,1.5064,1.5069,1.5059,1.5057,1.5075,1.5077,1.5082,1.5125,1.5126,1.5079,1.508,1.5081,1.5082,0,0,0,0,0,0,0,1.5062,1.5066,1.5103,1.5082,1.508,1.5069,1.507,1.5097,1.5083,1.5068,1.5065,1.5066,1.5074,1.508,1.5082,1.5126,1.5079,1.5081,1.5082,1.5083,1.5215,1.5217,0,0,0,0,0,0,1.5064,1.5065,1.5103,1.5104,1.5066,1.5072,1.5072,1.5083,1.5082,1.508,1.5068,1.5064,1.5078,1.508,1.5082,1.5145,1.5081,1.5083,1.5085,1.5212,1.5215,1.5217,0,0,0,0,0,0,1.5063,1.5068,1.5103,1.5084,1.5087,1.5075,1.5088,1.5084,1.5091,1.5082,1.508,1.5077,1.5076,1.5079,1.5115,1.5145,1.5084,1.5086,1.521,1.5213,1.5216,1.5271,0,0,0,0,0,0,1.5062,1.5068,1.5087,1.5084,1.5088,1.5135,1.5089,1.5086,1.5095,1.509,1.509,1.5088,1.5075,1.5112,1.5117,1.5147,1.5088,1.5207,1.5211,1.5215,1.5266,1.5275,1.5283,0,0,0,0,0,1.506,1.5102,1.5088,1.5093,1.5112,1.5136,1.5139,1.5122,1.5097,1.5117,1.5112,1.5088,1.5141,1.5116,1.5122,1.5152,1.5205,1.521,1.5215,1.5262,1.5273,1.5283,0,0,0,0,0,0,1.5108,1.5101,1.5086,1.5128,1.5133,1.5129,1.5153,1.5134,1.5147,1.5141,1.512,1.5121,1.5161,1.516,1.5132,1.5204,1.5169,1.5175,1.5203,1.5214,1.5222,1.5221,1.509,0,0,0,0,0,1.5124,1.5144,1.5136,1.5175,1.5178,1.5165,1.5175,1.5162,1.5166,1.5168,1.5166,1.5172,1.5189,1.5201,1.5217,1.5266,1.5266,1.529,1.5299,1.5306,1.5311,1.5338,1.5349,1.5233,1.5233,1.5233,0,0,1.5156,1.5155,1.5168,1.5184,1.5187,1.5208,1.5167,1.5192,1.5208,1.5172,1.5206,1.5204,1.521,1.5252,1.5271,1.5253,1.5343,1.5312,1.5318,1.5319,1.5344,1.5355,1.5365,1.5237,1.5236,1.5236,0,0,1.5226,1.5227,1.5259,1.5263,1.5267,1.5258,1.5266,1.5265,1.5263,1.5296,1.527,1.529,1.5321,1.5326,1.5332,1.5407,1.5386,1.5413,1.5457,1.5484,1.5493,1.5501,1.5528,1.5537,1.5418,1.5418,1.5418,0,1.5266,1.5296,1.5278,1.5304,1.5313,1.5282,1.5315,1.5319,1.5329,1.5336,1.5316,1.5355,1.5356,1.54,1.5418,1.5425,1.5434,1.5412,1.5493,1.5501,1.5508,1.5533,1.5543,1.5422,1.5421,1.5421,1.5421,0,1.5345,1.5368,1.5393,1.5403,1.5415,1.5444,1.5431,1.5445,1.5431,1.5425,1.5461,1.5461,1.5477,1.5487,1.5474,1.553,1.5519,1.5496,1.546,1.5522,1.5546,1.5555,1.5426,1.5425,1.5424,1.5423,0,0,1.5444,1.5445,1.5455,1.546,1.5463,1.548,1.5509,1.5525,1.5537,1.5546,1.557,1.5598,1.5577,1.5585,1.5573,1.5596,1.5656,1.557,1.557,1.5586,1.5718,1.5735,1.5747,1.5642,1.5644,1.5645,1.5718,0,1.5513,1.5562,1.5547,1.5596,1.5617,1.5589,1.5615,1.562,1.5616,1.5634,1.5629,1.565,1.5621,1.5626,1.5647,1.5644,1.5682,1.5638,1.5665,1.5666,1.5664,1.5759,1.5776,1.5844,1.5727,1.5729,1.573,0,1.5599,1.5611,1.5663,1.5664,1.5672,1.5695,1.5709,1.5726,1.5732,1.5728,1.5738,1.5721,1.575,1.5715,1.5756,1.5727,1.5737,1.5737,1.574,1.5741,1.5701,1.5763,1.5866,1.5876,1.5744,1.5743,1.5742,0,1.5666,1.5695,1.573,1.5735,1.5738,1.5755,1.5757,1.5761,1.5772,1.5784,1.5791,1.5807,1.5816,1.583,1.5818,1.5793,1.5861,1.5825,1.5859,1.5859,1.5874,1.5873,1.598,1.5881,1.5881,1.5881,1.5881,0,1.5744,1.5777,1.5761,1.5782,1.5819,1.5802,1.5839,1.5838,1.5842,1.5864,1.5841,1.5862,1.5845,1.5865,1.5856,1.5892,1.5896,1.5894,1.5891,1.5896,1.5896,1.5902,1.5897,1.5884,1.5883,1.5883,1.5882,0,1.5825,1.5815,1.5852,1.5852,1.5852,1.5879,1.5879,1.59,1.5895,1.5922,1.5928,1.592,1.5942,1.5932,1.5955,1.595,1.5996,1.5987,1.5994,1.5991,1.6026,1.6023,1.614,1.6155,1.6047,1.6048,1.6049,0,1.5875,1.59,1.5903,1.5915,1.5919,1.5939,1.5951,1.5936,1.5949,1.5959,1.5978,1.5998,1.6014,1.6051,1.6048,1.6066,1.6057,1.6097,1.606,1.6064,1.6058,1.6056,1.6059,1.6104,1.6105,1.6107,1.6107,0,1.5965,1.596,1.5976,1.5992,1.6006,1.6018,1.6028,1.604,1.6025,1.6041,1.6064,1.6076,1.61,1.6121,1.6137,1.614,1.6122,1.6119,1.6128,1.6133,1.6136,1.6135,1.6014,1.6116,1.6116,1.6115,1.6114,1.6114,1.6032,1.6053,1.6059,1.6079,1.6085,1.6095,1.6114,1.6112,1.613,1.6149,1.6139,1.6166,1.6173,1.6193,1.6199,1.622,1.6204,1.6217,1.622,1.6223,1.6228,1.6133,1.6223,1.6222,1.6222,1.6222,1.6222,0,1.6121,1.6124,1.6142,1.6157,1.6173,1.6155,1.6165,1.618,1.6203,1.6212,1.6228,1.6254,1.6275,1.6274,1.6293,1.631,1.6303,1.6316,1.6314,1.6315,1.6241,1.6231,1.6322,1.6322,1.6322,1.6322,1.6322,1.6322,1.6169,1.6204,1.62,1.6238,1.624,1.6266,1.6273,1.6283,1.629,1.632,1.6337,1.6337,1.6342,1.6361,1.638,1.6379,1.6387,1.6404,1.64,1.633,1.632,1.6311,1.6302,1.6406,1.6406,1.6473,1.6473,1.6474]},{"header":{"parameterUnit":"m.s-1","parameterCategory":1,"la1":30.2991,"la2":30.254,"lo1":-89.0895,"lo2":-89.0444,"dy":0.0017,"dx":0.0017,"nx":28,"ny":28,"refTime":"2025-05-21T21:00:00:Z","depth":0,"parameterNumber":3,"parameterNumberName":"V-component_of_WINDS"},"data":[0,0,0,0,0,0,0,0,0,0,0,0,0,0,0,0,0,0,0,0,0,0,0,0,0,0,0,0,0,0,0,0,0,0,0,0,0,0,0,0,0,0,0,0,0,0,0,0,0,0,0,0,0,0,0,0,0,0,-1.3447,-1.3447,0,-1.3485,-1.3486,-1.3486,-1.3487,-1.3486,-1.3486,-1.3486,-1.3525,-1.3527,-1.3528,0,0,0,0,0,0,0,0,0,0,0,0,0,-1.3376,-1.3378,-1.3447,-1.3447,-1.3448,-1.3485,-1.3486,-1.3486,-1.3487,-1.3486,-1.3486,-1.3485,-1.3525,-1.3527,-1.3528,0,0,0,0,0,0,0,0,0,0,0,0,0,-1.341,-1.3378,-1.3447,-1.3453,-1.3454,-1.3485,-1.3486,-1.3487,-1.3487,-1.3486,-1.3486,-1.3485,-1.3524,-1.3526,-1.3529,-1.3557,0,0,-1.3536,-1.3537,0,0,0,0,0,0,0,0,-1.3408,-1.3413,-1.3451,-1.3452,-1.3454,-1.3481,-1.3476,-1.351,-1.3487,-1.3474,-1.3486,-1.3485,-1.3511,-1.3514,-1.3523,-1.3559,-1.3561,-1.3536,-1.3537,-1.3538,-1.3539,0,0,0,0,0,0,0,-1.3406,-1.3411,-1.3462,-1.3452,-1.3453,-1.3454,-1.3458,-1.3482,-1.3496,-1.3476,-1.3476,-1.348,-1.3512,-1.3521,-1.3524,-1.3561,-1.3536,-1.3538,-1.3539,-1.354,-1.3625,-1.3626,0,0,0,0,0,0,-1.3402,-1.3409,-1.3461,-1.3463,-1.3429,-1.3456,-1.3461,-1.3473,-1.3496,-1.3499,-1.3481,-1.348,-1.3518,-1.3522,-1.3526,-1.3562,-1.3538,-1.354,-1.3542,-1.3624,-1.3625,-1.3626,0,0,0,0,0,0,-1.3401,-1.3407,-1.3459,-1.3436,-1.3443,-1.3458,-1.3472,-1.3474,-1.3483,-1.35,-1.3503,-1.3488,-1.3517,-1.3522,-1.355,-1.3563,-1.3541,-1.3543,-1.3623,-1.3625,-1.3626,-1.3633,0,0,0,0,0,0,-1.3399,-1.3406,-1.3416,-1.3437,-1.3444,-1.3482,-1.3472,-1.3475,-1.3487,-1.3487,-1.3507,-1.351,-1.3517,-1.3546,-1.3552,-1.3566,-1.3545,-1.3622,-1.3624,-1.3625,-1.3632,-1.3635,-1.3637,0,0,0,0,0,-1.3396,-1.3416,-1.3417,-1.3423,-1.3457,-1.3483,-1.3487,-1.3495,-1.3488,-1.3499,-1.351,-1.3509,-1.3561,-1.3549,-1.3556,-1.357,-1.3621,-1.3623,-1.3625,-1.3631,-1.3634,-1.3637,0,0,0,0,0,0,-1.3397,-1.3419,-1.342,-1.3447,-1.3463,-1.3483,-1.3497,-1.3498,-1.3516,-1.3515,-1.3524,-1.3528,-1.3556,-1.3566,-1.3553,-1.36,-1.359,-1.3594,-1.3592,-1.3596,-1.3598,-1.3595,-1.3547,0,0,0,0,0,-1.34,-1.3419,-1.3437,-1.346,-1.3468,-1.3481,-1.3493,-1.3497,-1.3514,-1.3521,-1.3534,-1.3551,-1.3571,-1.3584,-1.3603,-1.3634,-1.3639,-1.3647,-1.365,-1.3652,-1.3654,-1.3673,-1.3677,-1.3633,-1.3633,-1.3633,0,0,-1.3407,-1.3422,-1.3433,-1.3461,-1.3473,-1.3493,-1.3487,-1.3507,-1.3522,-1.3524,-1.3551,-1.3562,-1.3581,-1.3611,-1.3624,-1.362,-1.3668,-1.3654,-1.3656,-1.3657,-1.3676,-1.368,-1.3684,-1.3634,-1.3634,-1.3634,0,0,-1.343,-1.3443,-1.3463,-1.3477,-1.3497,-1.3506,-1.3512,-1.3532,-1.3539,-1.3566,-1.3569,-1.3587,-1.3621,-1.3636,-1.3648,-1.368,-1.368,-1.3686,-1.3699,-1.3717,-1.3721,-1.3724,-1.3736,-1.374,-1.3689,-1.3689,-1.3689,0,-1.3436,-1.3465,-1.3474,-1.3495,-1.3508,-1.3512,-1.3534,-1.3547,-1.3572,-1.3581,-1.3576,-1.3621,-1.3634,-1.3668,-1.3676,-1.3685,-1.3692,-1.3683,-1.372,-1.3723,-1.3726,-1.3738,-1.3742,-1.3689,-1.3689,-1.3689,-1.3689,0,-1.3473,-1.3493,-1.3508,-1.3533,-1.3548,-1.3569,-1.3582,-1.3596,-1.3601,-1.3611,-1.364,-1.3656,-1.368,-1.3689,-1.3693,-1.3724,-1.3721,-1.3718,-1.3708,-1.3731,-1.3742,-1.3746,-1.369,-1.369,-1.369,-1.369,0,0,-1.3494,-1.3526,-1.3531,-1.3544,-1.3568,-1.3584,-1.3607,-1.3631,-1.3643,-1.3661,-1.3681,-1.3712,-1.371,-1.3723,-1.373,-1.3745,-1.3771,-1.3741,-1.3741,-1.3746,-1.3808,-1.381,-1.3815,-1.3772,-1.3773,-1.3774,-1.3807,0,-1.352,-1.356,-1.357,-1.3604,-1.3624,-1.3629,-1.365,-1.3667,-1.3678,-1.3697,-1.371,-1.3731,-1.3727,-1.3735,-1.3751,-1.3765,-1.3784,-1.3763,-1.3792,-1.3793,-1.3786,-1.3821,-1.3823,-1.3853,-1.3811,-1.3812,-1.3813,0,-1.3554,-1.3574,-1.3611,-1.3634,-1.3643,-1.3661,-1.3685,-1.3703,-1.3724,-1.3731,-1.3748,-1.3753,-1.3778,-1.3768,-1.3804,-1.379,-1.3803,-1.3812,-1.3813,-1.3815,-1.3803,-1.3825,-1.3863,-1.3867,-1.382,-1.3819,-1.3819,0,-1.3567,-1.3603,-1.3631,-1.3641,-1.3669,-1.3682,-1.3694,-1.3714,-1.3729,-1.375,-1.376,-1.3783,-1.3797,-1.3816,-1.3828,-1.3819,-1.3864,-1.3854,-1.3871,-1.3871,-1.3879,-1.3878,-1.3919,-1.3888,-1.3888,-1.3888,-1.3887,0,-1.3594,-1.3617,-1.3637,-1.3653,-1.368,-1.3692,-1.3717,-1.373,-1.3749,-1.3769,-1.3775,-1.3794,-1.3809,-1.3831,-1.3841,-1.387,-1.3875,-1.3883,-1.3885,-1.3882,-1.3881,-1.389,-1.3888,-1.3889,-1.3888,-1.3888,-1.3888,0,-1.3612,-1.3627,-1.3657,-1.3682,-1.3689,-1.3707,-1.3728,-1.3746,-1.3758,-1.3783,-1.379,-1.3809,-1.3835,-1.385,-1.3882,-1.3889,-1.3922,-1.3923,-1.3914,-1.3915,-1.3931,-1.393,-1.398,-1.3987,-1.395,-1.3951,-1.3951,0,-1.3628,-1.3646,-1.3673,-1.3687,-1.37,-1.3722,-1.3738,-1.3751,-1.3767,-1.3794,-1.3808,-1.3835,-1.3856,-1.3898,-1.3915,-1.3941,-1.3943,-1.3959,-1.3947,-1.3944,-1.3944,-1.3942,-1.3945,-1.396,-1.3961,-1.3961,-1.3961,0,-1.3656,-1.3663,-1.3684,-1.3709,-1.3727,-1.3747,-1.3767,-1.3779,-1.3796,-1.3814,-1.3841,-1.3858,-1.3892,-1.3919,-1.3946,-1.396,-1.3964,-1.3965,-1.3971,-1.3967,-1.3962,-1.3966,-1.392,-1.3964,-1.3963,-1.3963,-1.3963,-1.3963,-1.3674,-1.369,-1.3713,-1.3737,-1.3754,-1.3773,-1.3791,-1.3806,-1.3829,-1.3857,-1.3865,-1.3893,-1.3917,-1.3954,-1.3969,-1.3993,-1.399,-1.3997,-1.3999,-1.4001,-1.4001,-1.3959,-1.3998,-1.3998,-1.3997,-1.3997,-1.3997,0,-1.3702,-1.3717,-1.3739,-1.3768,-1.3788,-1.3791,-1.3814,-1.383,-1.3855,-1.3877,-1.3899,-1.3931,-1.3957,-1.3978,-1.4006,-1.4021,-1.4024,-1.4028,-1.4026,-1.403,-1.4002,-1.3995,-1.4025,-1.4025,-1.4025,-1.4025,-1.4025,-1.4025,-1.3718,-1.3747,-1.3757,-1.3795,-1.3811,-1.3839,-1.3852,-1.387,-1.3888,-1.3923,-1.3946,-1.3959,-1.3981,-1.4011,-1.4036,-1.4042,-1.4052,-1.4055,-1.4061,-1.4035,-1.4032,-1.4029,-1.4022,-1.4058,-1.4058,-1.4087,-1.4088,-1.4088]}]]